SCP
0 0 0 0 0 0 0 0 0 0 0 0 0 0 0 0 0 0 0 0 0 0 0 0 0 0 0 0 0 0 0 0 0 0 0 0 0 0 0 0 0 0 0 0 0 0 0 0 0
0 0 0 0 0 0 0 0 0 0 0 0 0 0 0 0 0 0 0 0 0 0 0 0 0 0 0 0 0 0 0 0 0 0 0 0 0 0 0 0 0 0 0 0 0 0 0 0 0
0 0 0 0 0 0 0 0 0 0 0 0 0 0 0 0 0 0 0 0 0 0 0 0 0 0 0 0 0 0 0 0 0 0 0 0 0 0 0 0 0 0 0 0 0 0 0 0 0
0 0 0 0 0 0 0 0 0 0 0 0 0 0 0 0 0 0 0 0 0 0 0 0 0 0 0 0 0 0 0 0 0 0 0 0 0 0 0 0 0 0 0 0 0 0 0 0 0
0 0 0 0 0 0 0 0 0 0 0 0 0 0 0 0 0 0 0 0 0 0 0 0 0 0 0 0 0 0 0 0 0 0 0 0 0 0 0 0 0 0 0 0 0 0 0 0 0
0 0 0 0 0 0 0 0 0 0 0 0 0 0 0 0 0 0 0 0 0 0 0 0 0 0 0 0 0 0 0 0 0 0 0 0 0 0 0 0 0 0 0 0 0 0 0 0 0
0 0 0 0 0 0 0 0 0 0 0 0 0 0 0 0 0 0 0 0 0 0 0 0 0 0 0 0 0 0 0 0 0 0 0 0 0 0 0 0 0 0 0 0 0 0 0 0 0
0 0 0 0 0 0 0 0 0 0 0 0 0 0 0 0 0 0 0 0 0 0 0 0 0 0 0 0 0 0 0 0 0 0 0 0 0 0 0 0 0 0 0 0 0 0 0 0 0
0 0 0 0 0 0 0 0 0 0 0 0 0 0 0 0 0 0 0 0 0 0 0 0 0 0 0 0 0 0 0 0 0 0 0 0 0 0 0 0 0 0 0 0 0 0 0 0 0
0 0 0 0 0 0 0 0 0 0 0 0 0 0 0 0 0 0 0 0 0 0 0 0 0 0 1 0 0 0 0 0 0 0 0 0 0 0 0 0 0 0 0 0 0 0 0 0 0
0 0 0 0 0 0 0 0 0 0 0 0 0 0 0 0 0 0 0 0 0 0 0 0 0 0 1 1 0 0 0 0 0 0 0 0 0 0 0 0 0 0 0 0 0 0 0 0 0
0 0 0 0 0 0 0 0 0 0 0 0 0 0 0 0 0 0 0 0 0 0 0 0 0 0 1 1 1 0 0 0 0 0 0 0 0 0 0 0 0 0 0 0 0 0 0 0 0
0 0 0 0 0 0 0 0 0 0 0 0 0 0 0 0 0 0 0 0 0 0 0 0 0 0 1 1 1 1 0 0 0 0 0 0 0 0 0 0 0 0 0 0 0 0 0 0 0
0 0 0 0 0 0 0 0 0 0 0 0 0 0 0 0 0 0 0 0 0 0 0 0 0 0 1 1 1 1 0 0 0 0 0 0 0 0 0 0 0 0 0 0 0 0 0 0 0
0 0 0 0 0 0 0 0 0 0 0 0 0 0 0 0 0 0 0 0 0 0 0 0 0 0 0 1 1 1 0 0 0 0 0 0 0 0 0 0 0 0 0 0 0 0 0 0 0
0 0 0 0 0 0 0 0 0 0 0 0 0 0 0 0 0 0 0 0 0 0 0 0 0 0 0 0 1 1 0 0 0 0 0 0 0 0 0 0 0 0 0 0 0 0 0 0 0
0 0 0 0 0 0 0 0 0 0 0 0 0 0 0 0 0 0 0 0 0 0 0 0 0 0 0 0 1 1 0 0 0 0 0 0 0 0 0 0 0 0 0 0 0 0 0 0 0
0 0 0 0 0 0 0 0 0 0 0 0 0 0 0 0 0 0 0 0 0 0 0 0 0 0 0 0 0 1 0 0 0 0 0 0 0 0 0 0 0 0 0 0 0 0 0 0 0
0 0 0 0 0 0 0 0 0 0 0 0 0 0 0 0 0 0 0 0 0 0 0 0 1 0 0 0 0 1 1 0 0 0 0 0 0 0 0 0 0 0 0 0 0 0 0 0 0
0 0 0 0 0 0 0 0 0 0 0 0 0 0 0 0 0 0 0 0 0 0 0 0 1 1 1 0 0 1 1 0 0 0 0 0 0 0 0 0 0 0 0 0 0 0 0 0 0
0 0 0 0 0 0 0 0 0 0 0 0 0 0 0 0 0 0 0 0 0 0 0 0 1 1 1 1 1 1 1 0 0 0 0 0 0 0 0 0 0 0 0 0 0 0 0 0 0
0 0 0 0 0 0 0 0 0 0 0 0 0 0 0 0 0 0 0 0 0 0 0 0 1 1 1 1 1 1 1 0 0 0 0 0 0 0 0 0 0 0 0 0 0 0 0 0 0
0 0 0 0 0 0 0 0 0 0 0 0 0 0 0 0 0 0 0 0 0 0 0 0 0 1 1 1 1 1 1 0 0 0 0 0 0 0 0 0 0 0 0 0 0 0 0 0 0
0 0 0 0 0 0 0 0 0 0 0 0 0 0 0 0 0 0 0 0 0 0 0 0 0 0 1 1 2 1 1 1 0 0 0 0 0 0 0 0 0 0 0 0 0 0 0 0 0
0 0 0 0 0 0 0 0 0 0 0 0 0 0 0 0 0 0 0 0 0 0 0 0 0 0 0 1 1 1 1 1 0 0 0 0 0 0 0 0 0 0 0 0 0 0 0 0 0
0 0 0 0 0 0 0 0 0 0 0 0 0 0 0 0 0 0 0 0 0 0 0 0 0 0 0 0 1 1 1 1 1 0 0 0 0 0 0 0 0 0 0 0 0 0 0 0 0
0 0 0 0 0 0 0 0 0 0 0 0 0 0 0 0 0 0 0 0 0 0 0 0 0 0 0 0 0 0 1 1 1 1 1 0 0 0 0 0 0 0 0 0 0 0 0 0 0
0 0 0 0 0 0 0 0 0 0 0 0 0 0 0 0 0 0 0 0 0 0 0 0 0 0 0 0 0 0 0 1 1 1 1 1 0 0 0 0 0 0 0 0 0 0 0 0 0
0 0 0 0 0 0 0 0 0 0 0 0 0 0 0 0 0 0 0 0 0 0 0 0 0 0 0 0 0 0 0 0 0 0 1 0 1 0 0 0 0 0 0 0 0 0 0 0 0
0 0 0 0 0 0 0 0 0 0 0 0 0 0 0 0 0 0 0 0 0 0 0 0 0 0 0 0 0 0 0 0 0 0 0 0 0 1 0 0 0 0 0 0 0 0 0 0 0
Wind_Speed
17 13 7 3 3 2 3 5 5 4 5 7 6 5 6 9 7 8 4 8 12 12 12 10 11 12 12 12 12 11 11 12 12 12 11 12 12 12 13 13 13 13 13 13 13 14 14 14 13
14 12 6 3 3 1 4 5 6 8 7 4 2 2 2 9 8 7 5 8 11 12 11 11 11 12 12 12 11 11 11 11 11 11 11 11 11 11 12 12 12 12 12 12 13 13 13 12 12
13 10 4 3 2 3 4 6 9 8 5 1 2 3 6 6 7 6 6 8 9 9 10 12 11 12 12 11 11 11 11 11 11 11 11 10 10 11 11 11 11 12 12 12 12 12 12 11 11
7 5 3 3 1 4 5 5 7 7 4 1 1 5 6 5 4 7 9 8 8 9 11 11 11 11 11 11 11 11 11 11 10 10 10 10 10 10 10 10 11 11 11 11 11 10 10 10 9
4 3 4 3 1 2 3 4 3 4 5 4 1 3 7 5 8 10 8 7 8 8 10 10 10 10 10 10 10 11 11 10 10 10 10 10 9 9 9 9 10 10 10 10 9 9 9 9 8
4 3 4 3 1 3 3 2 1 1 4 4 1 2 7 6 8 8 7 7 8 8 9 10 9 9 9 9 9 10 10 10 10 9 9 9 9 8 8 9 9 9 9 9 8 8 8 7 6
3 3 5 6 2 1 4 2 2 1 1 3 1 1 8 7 7 8 7 6 8 8 8 8 8 8 8 8 8 9 9 9 9 9 9 8 8 7 7 7 7 7 8 7 7 7 6 5 5
3 4 6 6 4 1 4 2 0 2 2 4 2 2 7 8 8 7 6 5 7 7 6 8 8 8 7 6 8 9 9 9 9 9 8 8 7 7 6 6 6 6 7 7 6 6 5 4 3
3 4 6 5 3 0 4 2 2 2 1 2 2 4 7 13 9 7 5 4 5 6 5 6 7 7 8 8 9 8 8 9 9 8 9 8 5 5 4 5 6 6 6 6 6 5 4 3 2
3 5 7 4 4 3 1 2 2 3 4 4 5 7 10 10 9 9 8 8 7 7 6 5 6 6 7 7 7 5 6 6 6 6 6 5 4 4 5 7 7 6 5 5 6 5 4 4 3
5 6 6 4 3 4 3 3 2 3 5 5 5 10 11 10 9 9 9 9 8 8 7 5 5 6 6 5 6 4 4 5 6 7 7 5 3 4 4 3 4 4 5 4 4 4 4 4 3
7 7 6 5 2 2 4 5 5 6 5 2 2 7 10 11 11 11 10 9 9 9 9 7 6 6 6 5 5 4 4 4 4 6 7 4 3 3 3 3 4 4 3 4 4 4 5 4 3
10 8 7 5 2 3 5 7 7 8 6 3 1 5 8 9 10 9 9 8 9 10 10 9 8 7 6 5 4 5 4 4 5 5 5 5 4 4 4 3 4 4 4 4 4 4 4 4 4
5 7 8 6 5 5 6 9 8 8 6 6 5 6 8 9 10 10 10 10 10 10 10 10 10 8 7 6 5 4 4 4 4 5 6 6 5 5 4 4 4 4 4 4 4 5 4 4 3
5 7 8 8 7 5 5 10 12 12 9 8 8 8 8 9 9 10 11 11 10 10 10 10 10 10 9 8 7 5 5 5 4 5 6 7 6 6 5 5 5 4 4 4 3 4 3 3 4
4 6 8 8 9 7 6 12 9 9 10 10 9 8 8 9 9 9 10 10 10 10 11 11 9 10 10 9 7 6 5 6 5 5 5 8 8 6 5 5 5 5 4 4 4 3 3 3 4
7 8 10 9 9 8 10 10 8 6 6 8 8 8 8 8 9 9 9 10 10 11 11 11 12 11 11 10 7 7 6 6 6 5 5 7 8 8 6 5 5 6 5 4 5 4 4 4 4
8 8 9 10 6 9 12 12 10 8 8 8 8 9 9 9 9 8 9 9 10 10 11 12 12 12 11 9 7 6 7 7 6 6 7 8 8 9 7 6 6 6 5 5 5 5 5 4 4
8 9 10 9 6 7 12 15 13 10 10 10 9 9 9 9 9 8 9 9 9 10 11 12 13 13 11 9 10 10 9 8 7 7 8 9 9 10 9 7 7 7 6 7 7 5 6 5 3
12 13 12 8 4 4 8 14 12 12 13 12 12 11 10 9 9 8 9 9 11 11 11 12 13 13 13 11 10 8 8 7 8 7 9 10 10 11 10 10 8 8 7 8 8 7 5 5 5
16 15 13 9 5 5 7 13 15 14 15 14 13 12 11 10 10 9 9 9 10 12 13 12 13 13 14 13 8 6 6 6 8 10 10 12 12 12 11 12 10 9 9 8 9 8 9 7 6
14 10 10 9 7 6 7 10 9 10 12 14 13 13 12 11 11 9 8 9 10 11 11 12 12 13 12 13 12 12 12 13 13 10 9 11 13 13 13 12 12 11 9 10 10 10 8 8 6
7 4 7 9 9 9 8 11 8 7 11 10 10 11 12 11 11 10 8 8 8 8 9 10 11 12 12 13 15 15 14 12 8 9 10 11 12 14 14 14 13 12 11 11 10 10 11 9 8
5 3 4 5 6 13 14 12 11 9 11 9 8 8 8 8 8 8 7 6 6 6 7 8 10 11 11 13 14 16 16 14 11 11 11 11 10 11 15 14 14 13 12 12 12 11 12 11 11
9 7 6 8 9 11 9 12 12 8 9 10 8 6 6 5 5 5 5 5 5 5 5 6 9 10 10 12 13 15 16 15 15 13 12 10 9 10 14 15 15 13 14 12 11 11 12 12 11
16 14 10 8 7 4 8 13 9 7 7 7 6 5 5 4 3 4 4 5 4 4 4 5 7 8 9 10 12 12 13 12 11 13 11 11 10 10 10 14 14 15 14 13 12 11 11 10 12
12 15 10 5 3 4 7 8 7 5 5 6 6 6 5 5 4 4 3 3 3 3 4 5 5 6 7 8 9 10 11 12 12 11 11 9 9 8 11 13 14 15 14 14 13 11 12 11 12
9 8 6 9 9 10 9 11 8 7 9 8 8 6 6 5 4 3 3 3 3 3 3 4 5 6 6 6 7 7 8 10 10 9 10 10 10 9 10 12 13 14 14 14 13 11 11 12 12
13 13 9 7 6 7 7 7 6 8 9 8 7 5 4 3 2 2 2 1 1 1 2 3 4 5 5 5 6 6 7 7 8 9 10 9 8 9 10 11 12 13 13 14 14 14 12 14 13
13 16 15 11 8 7 6 8 1 1 3 4 3 2 1 1 1 1 1 2 1 1 2 3 3 4 5 5 5 6 6 6 7 8 9 8 9 8 9 9 10 11 12 13 14 15 14 15 15
Wind_Direction
313 307 297 274 261 238 84 82 74 74 72 49 33 358 15 46 40 94 119 108 112 116 125 130 127 126 124 122 120 118 115 111 107 103 100 98 98 96 95 93 91 90 89 88 87 84 81 79 77
307 306 294 255 269 279 94 96 83 65 71 85 86 307 39 80 78 102 114 112 118 125 135 132 129 128 127 126 124 122 119 116 113 109 106 103 102 100 99 99 97 95 94 92 90 88 85 83 80
299 286 277 280 301 2 68 85 92 86 84 68 105 35 32 66 100 120 124 128 121 123 122 125 133 133 132 131 129 127 124 121 118 116 113 110 107 104 102 101 101 98 97 95 93 91 88 85 82
304 291 258 271 313 33 40 77 101 118 125 65 337 111 86 50 80 111 126 132 124 119 119 130 135 137 137 137 135 133 131 128 124 122 119 116 112 108 105 102 104 101 99 98 97 94 91 87 82
279 275 274 264 264 68 50 66 103 144 146 137 270 96 97 87 95 116 139 136 128 123 124 135 136 139 141 143 142 140 137 134 130 127 125 122 119 115 110 108 108 107 104 102 101 98 95 90 83
301 290 282 275 176 126 102 82 215 191 113 119 213 112 103 123 125 137 144 144 133 129 129 135 137 141 145 147 146 144 141 139 136 133 131 128 126 124 120 116 114 114 112 108 105 103 97 92 82
305 295 285 294 299 156 111 114 257 272 149 122 52 93 119 139 131 142 149 152 135 132 134 141 149 150 149 149 148 148 144 141 140 137 133 130 129 126 119 118 121 122 120 116 112 109 104 98 86
308 289 270 271 277 248 116 139 360 322 33 64 6 350 121 137 133 143 148 148 134 136 148 154 161 162 159 155 152 149 146 143 140 134 130 129 127 122 122 129 131 133 131 128 123 118 115 110 100
286 255 261 265 283 331 120 172 148 23 357 116 88 56 97 124 135 142 149 159 148 153 167 168 167 167 164 164 157 151 149 148 142 138 142 145 157 152 155 146 137 140 140 143 142 139 136 136 160
233 244 252 285 332 348 105 223 182 195 222 196 162 119 119 133 153 166 176 182 177 177 184 180 173 170 168 164 154 164 165 159 170 160 166 192 185 159 153 137 139 142 149 159 165 169 180 202 204
235 244 265 284 338 346 322 277 255 248 245 229 188 155 149 158 175 186 191 192 188 185 189 190 184 176 171 156 163 171 171 169 191 172 180 196 165 139 139 139 144 156 168 181 178 184 218 225 214
252 260 271 281 350 316 285 285 271 248 261 339 43 142 158 174 190 197 199 197 190 189 189 194 191 184 179 169 174 171 172 172 185 177 180 178 163 169 171 168 174 181 189 196 186 202 222 225 227
239 256 264 272 260 263 276 272 272 263 262 266 158 152 180 190 198 203 201 199 194 193 190 191 193 193 187 181 179 178 179 176 184 176 182 177 172 182 185 186 181 185 190 192 199 210 214 212 222
258 255 256 250 241 242 253 261 256 255 251 243 218 206 204 207 202 198 199 200 199 198 193 190 194 197 193 189 186 186 184 181 186 179 185 188 183 183 184 189 190 197 198 192 196 210 208 208 214
279 274 262 242 231 231 251 258 240 246 245 240 228 224 219 215 208 204 200 201 199 196 193 191 194 196 199 197 194 193 190 185 194 186 186 190 195 191 184 187 190 201 203 201 200 217 211 210 213
231 241 245 232 216 214 216 255 250 237 226 233 232 229 226 221 214 208 202 198 197 192 193 193 191 196 201 202 199 198 197 193 196 193 189 193 198 198 189 190 191 192 194 193 196 210 210 219 220
206 227 236 242 214 204 209 251 256 252 233 237 236 235 232 226 219 211 203 197 194 192 191 192 191 196 200 201 202 204 203 202 198 200 199 197 198 202 197 195 194 189 191 194 198 202 203 213 219
201 221 233 236 218 213 226 244 253 257 250 247 246 243 239 233 225 215 206 200 193 191 191 192 192 196 196 198 204 209 210 208 205 205 205 200 199 201 202 200 199 193 191 197 200 203 206 210 212
246 245 243 242 239 230 239 248 251 248 248 246 245 246 243 239 233 218 206 197 191 190 193 193 194 195 193 196 201 205 211 209 209 211 209 208 204 201 203 204 202 200 199 200 200 198 207 214 207
237 248 258 268 271 265 267 264 259 252 246 243 243 241 241 244 241 231 212 198 195 196 198 199 198 195 196 201 202 204 206 211 214 212 214 213 210 206 205 206 205 203 202 203 202 199 202 208 191
227 231 239 251 284 275 288 273 255 251 248 245 240 237 237 238 239 236 222 210 201 200 200 203 203 200 198 198 194 195 203 208 211 214 216 215 214 211 208 207 207 205 204 208 206 201 202 209 206
234 227 236 246 249 250 225 270 250 246 245 240 236 231 231 232 236 237 232 222 210 207 201 201 203 203 199 194 198 198 204 212 215 213 214 212 213 215 212 209 209 210 209 210 208 206 205 202 210
220 201 224 238 245 255 236 259 260 234 249 246 239 228 222 224 228 233 233 228 220 209 204 203 203 205 201 198 200 204 213 218 217 212 212 212 211 214 214 212 211 213 214 213 208 206 207 207 209
192 181 226 236 238 245 228 240 263 222 235 243 244 237 221 220 225 229 232 232 230 219 207 203 205 209 206 203 203 207 214 215 214 214 215 214 212 211 212 212 213 215 216 216 213 210 210 211 212
190 180 203 211 219 238 197 223 249 219 223 230 238 236 224 218 220 226 230 235 236 229 217 210 207 213 210 209 210 212 214 215 218 218 219 215 214 212 210 209 213 215 217 218 214 213 215 214 214
199 198 205 214 217 231 192 223 244 218 214 219 226 232 236 231 222 224 230 233 237 232 222 215 216 219 215 215 217 216 215 217 222 221 220 219 219 215 205 206 212 215 215 217 216 218 219 217 219
196 210 217 245 264 267 239 248 254 212 209 211 216 225 237 242 237 238 242 237 237 233 223 218 223 229 227 225 224 221 217 218 221 220 220 223 221 213 205 204 208 213 214 215 215 220 220 218 221
209 181 182 209 217 232 239 237 236 213 216 218 218 218 230 239 249 253 247 238 239 233 228 223 225 232 234 235 234 232 226 222 222 220 223 222 220 212 206 207 207 209 212 213 215 219 219 219 222
194 202 203 203 207 213 238 243 217 209 203 204 200 198 215 229 245 252 266 262 249 258 251 252 249 247 247 243 242 241 237 230 226 225 227 227 225 217 214 211 208 209 210 210 214 218 216 221 224
207 209 204 210 213 216 234 252 312 95 130 137 139 131 107 84 63 30 355 352 335 299 278 269 267 262 257 251 246 245 242 235 231 231 231 228 226 222 218 214 213 213 212 211 213 218 218 221 224